[[{"header":{"parameterUnit":"m.s-1","parameterCategory":1,"la1":30.2991,"la2":30.254,"lo1":-89.0895,"lo2":-89.0444,"dy":0.0017,"dx":0.0017,"nx":28,"ny":28,"refTime":"2024-08-02T21:00:00:Z","depth":0,"parameterNumber":2,"parameterNumberName":"U-component_of_WINDS"},"data":[0,0,0,0,0,0,0,0,0,0,0,0,0,0,0,0,0,0,0,0,0,0,0,0,0,0,0,0,0,0,0,0,0,0,0,0,0,0,0,0,0,0,0,0,0,0,0,0,0,0,0,0,0,0,0,0,0,0,4.3036,4.3037,0,4.3116,4.3117,4.3118,4.2995,4.2991,4.2987,4.2982,4.307,4.3076,4.3082,0,0,0,0,0,0,0,0,0,0,0,0,0,4.2782,4.2788,4.3036,4.3037,4.3038,4.3116,4.3117,4.3118,4.2996,4.2991,4.2985,4.2981,4.3068,4.3075,4.3083,0,0,0,0,0,0,0,0,0,0,0,0,0,4.2881,4.279,4.3036,4.2986,4.2983,4.3115,4.3117,4.3118,4.2997,4.299,4.2984,4.2978,4.3065,4.3075,4.3084,4.3271,0,0,4.3113,4.3117,0,0,0,0,0,0,0,0,4.2875,4.289,4.2993,4.299,4.2986,4.3039,4.3059,4.317,4.2999,4.2992,4.2982,4.2975,4.3065,4.3074,4.3103,4.3275,4.3279,4.3114,4.312,4.3124,4.3126,0,0,0,0,0,0,0,4.2869,4.2886,4.3068,4.2994,4.299,4.2962,4.2968,4.308,4.3064,4.2992,4.2983,4.2994,4.3062,4.3095,4.3105,4.328,4.3113,4.3122,4.3128,4.3131,4.3608,4.3615,0,0,0,0,0,0,4.2867,4.2881,4.3065,4.307,4.2914,4.2971,4.2979,4.3028,4.3062,4.3061,4.2999,4.2988,4.3082,4.3094,4.3107,4.3328,4.3123,4.3132,4.3138,4.3601,4.361,4.3617,0,0,0,0,0,0,4.2862,4.2885,4.3062,4.2973,4.2994,4.2983,4.3039,4.3033,4.3065,4.3068,4.3065,4.3035,4.3077,4.3094,4.3231,4.3329,4.3137,4.3145,4.3593,4.3604,4.3614,4.377,0,0,0,0,0,0,4.2855,4.2884,4.2953,4.2976,4.2999,4.3183,4.3045,4.304,4.3082,4.3067,4.31,4.31,4.3073,4.3217,4.324,4.3339,4.3153,4.3584,4.3598,4.361,4.3756,4.3785,4.3809,0,0,0,0,0,4.2847,4.2996,4.2958,4.298,4.3085,4.3189,4.3202,4.3167,4.309,4.3161,4.3162,4.3099,4.3315,4.3232,4.3257,4.336,4.3578,4.3594,4.3609,4.3745,4.3779,4.3809,0,0,0,0,0,0,4.2987,4.2998,4.2955,4.3116,4.3152,4.3168,4.3256,4.3205,4.3265,4.325,4.3206,4.3214,4.3361,4.3374,4.3282,4.3542,4.3434,4.3455,4.3528,4.3561,4.3587,4.3581,4.3161,0,0,0,0,0,4.3036,4.3118,4.3123,4.3264,4.3284,4.3267,4.3311,4.3281,4.3317,4.3333,4.3344,4.3383,4.346,4.3511,4.3582,4.3758,4.3763,4.3841,4.3867,4.3889,4.3908,4.4002,4.4037,4.3669,4.3669,4.3669,0,0,4.314,4.3155,4.321,4.3293,4.3317,4.3404,4.3281,4.3378,4.3442,4.3348,4.3477,4.3487,4.3528,4.3685,4.3755,4.3701,4.4011,4.3909,4.3927,4.3934,4.4022,4.4057,4.4088,4.368,4.3678,4.3676,0,0,4.3372,4.3392,4.3511,4.3538,4.3576,4.3563,4.3592,4.3616,4.3618,4.3746,4.3677,4.3754,4.3887,4.3919,4.3952,4.4197,4.4141,4.4221,4.436,4.4452,4.4481,4.4506,4.4593,4.4625,4.424,4.4241,4.4241,0,4.3495,4.3621,4.3579,4.368,4.3719,4.3636,4.3757,4.3786,4.3846,4.3876,4.3814,4.3978,4.4,4.4163,4.4223,4.4253,4.4285,4.4217,4.448,4.4505,4.4528,4.461,4.4643,4.425,4.4249,4.4248,4.4247,0,4.3772,4.386,4.3952,4.401,4.406,4.4171,4.4147,4.4202,4.4168,4.4163,4.4295,4.4318,4.4391,4.4428,4.4397,4.4587,4.4552,4.4486,4.4376,4.4573,4.4649,4.4681,4.4264,4.426,4.4258,4.4255,0,0,4.4094,4.4127,4.4161,4.4186,4.4222,4.4291,4.4399,4.4469,4.4517,4.4562,4.4651,4.4766,4.4704,4.4742,4.4714,4.4795,4.4986,4.4718,4.4718,4.4767,4.5198,4.5247,4.5284,4.4949,4.4955,4.496,4.5194,0,4.4325,4.4508,4.4474,4.4653,4.4735,4.4657,4.4751,4.4784,4.4783,4.4853,4.4851,4.4933,4.4845,4.4868,4.4945,4.4947,4.5072,4.4929,4.5033,4.5038,4.5025,4.5324,4.5377,4.5596,4.5224,4.5229,4.5232,0,4.4618,4.4672,4.4859,4.4882,4.4915,4.4999,4.5061,4.5128,4.5165,4.5158,4.5201,4.5157,4.5265,4.5154,4.5303,4.5207,4.5248,4.5255,4.5263,4.5271,4.5147,4.534,4.5666,4.5698,4.5279,4.5276,4.5272,0,4.4834,4.4953,4.508,4.5105,4.5134,4.5196,4.5211,4.5241,4.5285,4.534,4.5368,4.5435,4.5472,4.5526,4.5502,4.5423,4.5656,4.5542,4.5654,4.5655,4.5706,4.5703,4.6042,4.5734,4.5733,4.5732,4.5732,0,4.5095,4.5213,4.5178,4.5256,4.5386,4.5346,4.5476,4.5482,4.551,4.5589,4.5527,4.5603,4.5566,4.564,4.5623,4.5749,4.5766,4.5764,4.5758,4.577,4.577,4.5795,4.5779,4.5741,4.5739,4.5737,4.5736,0,4.5358,4.5339,4.5472,4.5489,4.5496,4.5591,4.5606,4.568,4.5673,4.5774,4.5796,4.5786,4.587,4.5851,4.5943,4.5931,4.609,4.6065,4.6077,4.6071,4.6183,4.6172,4.655,4.6597,4.6259,4.6262,4.6264,0,4.5525,4.5613,4.5639,4.5687,4.5707,4.5785,4.5829,4.5793,4.5842,4.589,4.5959,4.6036,4.6096,4.6234,4.6236,4.6307,4.6283,4.641,4.6293,4.6301,4.6284,4.6279,4.6287,4.6433,4.6437,4.644,4.6443,0,4.5824,4.581,4.5875,4.5938,4.5992,4.6041,4.6083,4.6126,4.6094,4.6152,4.6236,4.6283,4.6376,4.6454,4.6519,4.6536,4.6485,4.648,4.6509,4.6521,4.6525,4.6524,4.614,4.6471,4.6468,4.6466,4.6465,4.6464,4.6044,4.6119,4.6148,4.6223,4.6251,4.6292,4.6362,4.6363,4.6432,4.6503,4.6479,4.6575,4.6609,4.669,4.6715,4.6791,4.6743,4.6786,4.6796,4.6807,4.6821,4.6513,4.6803,4.6802,4.6801,4.68,4.68,0,4.6339,4.6354,4.6423,4.6483,4.6543,4.6488,4.6532,4.6585,4.667,4.6705,4.6765,4.6862,4.6937,4.6945,4.7016,4.7075,4.7054,4.7095,4.709,4.7095,4.686,4.6827,4.7111,4.7111,4.7111,4.7111,4.7111,4.7111,4.65,4.6623,4.6613,4.675,4.6764,4.6856,4.6886,4.6923,4.6951,4.7061,4.7123,4.7127,4.7151,4.7224,4.7291,4.7291,4.732,4.7371,4.7363,4.7143,4.7112,4.7082,4.7051,4.7378,4.7378,4.7591,4.7593,4.7595]},{"header":{"parameterUnit":"m.s-1","parameterCategory":1,"la1":30.2991,"la2":30.254,"lo1":-89.0895,"lo2":-89.0444,"dy":0.0017,"dx":0.0017,"nx":28,"ny":28,"refTime":"2024-08-02T21:00:00:Z","depth":0,"parameterNumber":3,"parameterNumberName":"V-component_of_WINDS"},"data":[0,0,0,0,0,0,0,0,0,0,0,0,0,0,0,0,0,0,0,0,0,0,0,0,0,0,0,0,0,0,0,0,0,0,0,0,0,0,0,0,0,0,0,0,0,0,0,0,0,0,0,0,0,0,0,0,0,0,0.2961,0.2963,0,0.3094,0.3096,0.3097,0.3158,0.3158,0.3158,0.3158,0.3297,0.33,0.3304,0,0,0,0,0,0,0,0,0,0,0,0,0,0.2761,0.2765,0.2961,0.2963,0.2965,0.3094,0.3096,0.3098,0.3158,0.3158,0.3158,0.3158,0.3295,0.33,0.3305,0,0,0,0,0,0,0,0,0,0,0,0,0,0.2867,0.2766,0.2961,0.301,0.3016,0.3094,0.3096,0.3098,0.3158,0.3158,0.3158,0.3158,0.3294,0.33,0.3305,0.3345,0,0,0.3323,0.3325,0,0,0,0,0,0,0,0,0.2861,0.2874,0.3001,0.3007,0.3014,0.311,0.3077,0.3181,0.3159,0.3104,0.3158,0.3158,0.3235,0.3245,0.3271,0.3351,0.3357,0.3323,0.3327,0.3329,0.3331,0,0,0,0,0,0,0,0.2853,0.2869,0.3014,0.3003,0.3011,0.3026,0.3041,0.3097,0.3169,0.3109,0.3114,0.3129,0.3238,0.3265,0.3275,0.3359,0.3323,0.3328,0.3332,0.3334,0.3478,0.3479,0,0,0,0,0,0,0.2838,0.2862,0.301,0.3018,0.2935,0.303,0.3047,0.3079,0.3169,0.3182,0.3129,0.3131,0.3255,0.3268,0.328,0.3332,0.3329,0.3334,0.3338,0.3478,0.3478,0.3479,0,0,0,0,0,0,0.2833,0.285,0.3004,0.2941,0.2962,0.3034,0.307,0.3082,0.3109,0.3183,0.3197,0.3143,0.3256,0.3272,0.3328,0.3337,0.3337,0.3342,0.3477,0.3478,0.3478,0.3436,0,0,0,0,0,0,0.2827,0.2848,0.2863,0.2941,0.2965,0.305,0.307,0.3084,0.3118,0.3123,0.32,0.3213,0.3257,0.3319,0.3333,0.3345,0.3347,0.3477,0.3478,0.3478,0.3437,0.3435,0.3434,0,0,0,0,0,0.282,0.2847,0.2864,0.2881,0.2986,0.305,0.3064,0.3113,0.3119,0.3135,0.3183,0.3211,0.3334,0.3324,0.3341,0.3355,0.3476,0.3477,0.3478,0.3438,0.3435,0.3434,0,0,0,0,0,0,0.2769,0.2858,0.2878,0.2931,0.2982,0.306,0.3082,0.3109,0.3161,0.3163,0.3222,0.3239,0.329,0.3328,0.3316,0.3398,0.3408,0.3412,0.3371,0.337,0.3368,0.3358,0.3351,0,0,0,0,0,0.2764,0.2808,0.2884,0.2923,0.2948,0.301,0.304,0.3073,0.3129,0.3152,0.3204,0.3258,0.3309,0.3341,0.3392,0.3442,0.346,0.346,0.3458,0.3457,0.346,0.3489,0.349,0.3482,0.3482,0.3482,0,0,0.2754,0.2808,0.2833,0.2914,0.2958,0.3003,0.3028,0.3075,0.3109,0.3159,0.3215,0.3255,0.3319,0.3372,0.3399,0.3406,0.3466,0.3458,0.3456,0.346,0.349,0.3491,0.3492,0.3482,0.3482,0.3482,0,0,0.276,0.2804,0.2842,0.2885,0.2951,0.2992,0.3001,0.3075,0.3103,0.316,0.3199,0.324,0.3327,0.3371,0.3404,0.3425,0.3453,0.344,0.3432,0.346,0.346,0.3461,0.3469,0.3471,0.3443,0.3443,0.3443,0,0.274,0.2808,0.2858,0.2903,0.2938,0.2984,0.3023,0.3063,0.3142,0.3165,0.3171,0.328,0.3327,0.3391,0.3396,0.3422,0.3434,0.3432,0.3456,0.3457,0.3459,0.3467,0.347,0.3441,0.3441,0.3441,0.3441,0,0.278,0.2827,0.285,0.2924,0.2961,0.3003,0.306,0.3092,0.3121,0.3162,0.3219,0.3276,0.334,0.3357,0.3387,0.3426,0.3428,0.3444,0.3456,0.3457,0.3466,0.3469,0.3438,0.3439,0.3439,0.344,0,0,0.2759,0.2859,0.2867,0.2901,0.2976,0.3014,0.3057,0.3118,0.3145,0.3197,0.3236,0.3307,0.3322,0.3361,0.3396,0.342,0.3433,0.3434,0.3436,0.3432,0.348,0.3467,0.347,0.3451,0.3452,0.3453,0.3474,0,0.2775,0.2854,0.29,0.2961,0.3005,0.3049,0.3087,0.3137,0.3176,0.322,0.3263,0.3313,0.3329,0.3353,0.3379,0.3426,0.3444,0.3425,0.3488,0.349,0.3471,0.3475,0.3462,0.348,0.3478,0.3479,0.3479,0,0.2804,0.2855,0.292,0.299,0.301,0.3043,0.3102,0.3143,0.3201,0.3228,0.327,0.3305,0.3353,0.3359,0.3427,0.3413,0.3441,0.3468,0.347,0.3479,0.3485,0.3484,0.3486,0.3489,0.3485,0.3484,0.3484,0,0.2782,0.2867,0.2917,0.2944,0.3027,0.3049,0.3085,0.3143,0.3177,0.3229,0.3251,0.3308,0.334,0.3383,0.3433,0.3433,0.3495,0.3506,0.3519,0.3518,0.3531,0.353,0.3539,0.3548,0.3548,0.3548,0.3548,0,0.2796,0.2834,0.2908,0.2938,0.2982,0.3035,0.3077,0.3116,0.3167,0.3207,0.3248,0.3285,0.3347,0.3391,0.343,0.348,0.3494,0.3517,0.3527,0.3514,0.3511,0.3534,0.3535,0.3548,0.3548,0.3548,0.3548,0,0.2779,0.283,0.2887,0.2961,0.298,0.3009,0.3072,0.3104,0.3144,0.3193,0.3208,0.3272,0.3326,0.3379,0.3452,0.3478,0.3528,0.3541,0.3508,0.3513,0.3524,0.3522,0.3549,0.3555,0.3559,0.3559,0.3559,0,0.2785,0.2815,0.2891,0.292,0.2954,0.3001,0.3035,0.3088,0.3122,0.319,0.3213,0.327,0.3318,0.3402,0.3456,0.3511,0.3527,0.3532,0.3535,0.3521,0.3528,0.3525,0.3529,0.3531,0.353,0.353,0.353,0,0.279,0.2813,0.286,0.2916,0.2956,0.3002,0.3051,0.3072,0.3135,0.3171,0.3226,0.3263,0.3337,0.3393,0.3455,0.3492,0.3522,0.3528,0.3534,0.3522,0.3501,0.3513,0.3504,0.3528,0.3528,0.3528,0.3528,0.3528,0.2785,0.2814,0.2872,0.2923,0.2964,0.3008,0.3042,0.3086,0.3132,0.3196,0.3224,0.328,0.3337,0.3423,0.346,0.3505,0.3512,0.3521,0.3523,0.3525,0.3522,0.3493,0.3516,0.3516,0.3516,0.3516,0.3517,0,0.2792,0.2831,0.2878,0.2944,0.2984,0.3007,0.3061,0.3094,0.3142,0.3192,0.3239,0.3302,0.3356,0.3413,0.3471,0.3496,0.3511,0.3509,0.3508,0.3517,0.3512,0.3501,0.3496,0.3496,0.3496,0.3496,0.3496,0.3496,0.2801,0.2851,0.2881,0.2952,0.2991,0.3045,0.3074,0.3115,0.3156,0.3224,0.3269,0.3306,0.3359,0.3421,0.3472,0.3487,0.3507,0.3501,0.3521,0.3515,0.3517,0.3518,0.3508,0.3505,0.3505,0.3522,0.3522,0.3522]}]]